Location: Alafon
(8.4500°N, 4.2333°E)
Time: 00:28:57
(UTC+00:00)

MOS 1 Rocket - Pass Details

Date: 05 July 2020
Orbit: 615 x 829 km, 97.4° (Epoch: 06 August)

Event Time Altitude Azimuth Distance (km) Brightness Sun altitude
Rises 18:27:19 0° 28° (NNE) 3,170 6.7 -5.7°
Reaches altitude 10° 18:29:46 10° 38° (NE) 2,281 5.8 -6.3°
Maximum altitude 18:34:17 33° 101° (E) 1,304 4.2 -7.3°
Drops below altitude 10° 18:38:59 10° 164° (SSE) 2,385 5.7 -8.4°
Sets 18:41:34 0° 173° (S) 3,336 6.5 -8.9°
